EW3716 Weather Reports


time (UTC)temp
C
wind
direction
speed
KPH
gust
KPH
rain 1hr
cm
rain 24hr
cm
rain mn
cm
humidity
%
barometer
mb
20260504173322 17 290 8.0 11.3 0.00 0.00 0.00 35 1002.2
20260504172820 17 220 12.9 14.5 0.00 0.00 0.00 34 1001.9
20260504172316 17 249 8.0 14.5 0.00 0.00 0.00 35 1002.2
20260504171812 17 261 17.7 22.5 0.00 0.00 0.00 33 1002.2
20260504171309 17 238 8.0 9.7 0.00 0.00 0.00 35 1002.2
20260504170807 16 250 9.7 14.5 0.00 0.00 0.00 35 1002.0
20260504170303 16 277 4.8 6.4 0.00 0.00 0.00 36 1002.1
20260504160222 16 239 9.7 12.9 0.00 0.00 0.00 36 1001.1
20260504150653 15 287 11.3 20.9 0.00 0.00 0.00 40 1000.7
20260504150149 16 227 6.4 9.7 0.00 0.00 0.00 40 1000.7
20260504141118 15 254 6.4 6.4 0.00 0.00 0.00 51 1000.2
20260504140615 15 265 9.7 12.9 0.00 0.00 0.00 52 999.9
20260504140111 15 227 3.2 3.2 0.00 0.00 0.00 54 999.7
20260504130539 13 242 1.6 1.6 0.00 0.00 0.00 61 999.3
20260504110426 12 99 1.6 3.2 0.00 0.00 0.00 58 998.2
20260504100343 12 51 1.6 3.2 0.00 0.00 0.00 58 998.7
20260504081736 13 65 6.4 9.7 0.00 0.00 0.00 49 999.8
20260504081233 13 91 4.8 4.8 0.00 0.00 0.00 48 999.7
20260504080730 12 59 6.4 9.7 0.00 0.00 0.00 48 999.7
20260504080226 12 58 3.2 6.4 0.00 0.00 0.00 48 999.8
20260504070153 12 47 3.2 3.2 0.00 0.00 0.00 49 1000.6
20260504060114 13 220 1.6 1.6 0.00 0.00 0.00 45 1001.5
20260504050542 13 259 0.0 1.6 0.00 0.00 0.00 44 1002.1
20260504045536 13 181 0.0 0.0 0.00 0.00 0.00 44 1002.3
20260504045031 13 241 0.0 0.0 0.00 0.00 0.00 44 1002.2
20260504044529 13 287 0.0 0.0 0.00 0.00 0.00 44 1002.1
20260504044026 13 278 0.0 0.0 0.00 0.00 0.00 43 1002.2
20260504043523 14 274 0.0 0.0 0.00 0.00 0.00 43 1002.4
20260504043020 14 112 1.6 1.6 0.00 0.00 0.00 42 1002.4
20260504042517 14 254 0.0 0.0 0.00 0.00 0.00 43 1002.7
20260504042014 15 249 0.0 0.0 0.00 0.00 0.00 42 1002.9
20260504041510 15 271 0.0 0.0 0.00 0.00 0.00 41 1002.9
20260504041006 15 97 3.2 3.2 0.00 0.00 0.00 40 1003.0
20260504040504 15 219 0.0 1.6 0.00 0.00 0.00 41 1003.1
20260504035959 15 229 1.6 1.6 0.00 0.00 0.00 40 1003.2
20260504035457 15 300 0.0 1.6 0.00 0.00 0.00 40 1003.2
20260504034953 15 51 3.2 4.8 0.00 0.00 0.00 41 1003.1
20260504034451 15 227 0.0 0.0 0.00 0.00 0.00 42 1003.2
20260504033948 15 61 0.0 3.2 0.00 0.00 0.00 42 1003.2
20260504033446 15 260 1.6 3.2 0.00 0.00 0.00 42 1003.5
20260504032943 15 247 0.0 1.6 0.00 0.00 0.00 41 1003.4
20260504032440 15 151 1.6 1.6 0.00 0.00 0.00 42 1003.5
20260504031936 15 211 1.6 1.6 0.00 0.00 0.00 41 1003.6
20260504031433 15 199 1.6 1.6 0.00 0.00 0.00 40 1003.8
20260504030930 15 227 1.6 1.6 0.00 0.00 0.00 41 1003.7
20260504030427 16 214 0.0 1.6 0.00 0.00 0.00 41 1003.9
20260504025923 16 226 1.6 3.2 0.00 0.00 0.00 40 1003.8
20260504025420 16 246 1.6 1.6 0.00 0.00 0.00 40 1003.7
20260504024917 16 172 1.6 1.6 0.00 0.00 0.00 40 1003.8
20260504024414 16 220 3.2 4.8 0.00 0.00 0.00 40 1003.9
20260504023911 16 241 0.0 1.6 0.00 0.00 0.00 40 1003.8
20260504023408 16 212 3.2 3.2 0.00 0.00 0.00 40 1003.9
20260504022903 16 241 0.0 1.6 0.00 0.00 0.00 41 1003.8
20260504022400 16 142 1.6 3.2 0.00 0.00 0.00 41 1003.9
20260504021856 16 234 0.0 0.0 0.00 0.00 0.00 41 1004.0
20260504021354 16 202 0.0 1.6 0.00 0.00 0.00 39 1003.8
20260504020851 17 118 1.6 3.2 0.00 0.00 0.00 39 1003.8
20260504020347 17 120 3.2 3.2 0.00 0.00 0.00 39 1003.9
20260504015843 17 39 3.2 3.2 0.00 0.00 0.00 38 1003.9
20260504015340 17 10 1.6 3.2 0.00 0.00 0.00 38 1004.0
20260504014836 17 155 3.2 4.8 0.00 0.00 0.00 37 1004.1
20260504014332 18 264 0.0 0.0 0.00 0.00 0.00 37 1003.9
20260504013830 18 243 0.0 1.6 0.00 0.00 0.00 36 1004.1
20260504013327 18 238 1.6 1.6 0.00 0.00 0.00 35 1004.2
20260504012824 19 244 0.0 1.6 0.00 0.00 0.00 35 1004.1
20260504012322 19 274 1.6 1.6 0.00 0.00 0.00 35 1004.0
20260504011819 19 205 1.6 3.2 0.00 0.00 0.00 35 1004.1
20260504011316 20 128 3.2 3.2 0.00 0.00 0.00 34 1004.1
20260504010811 20 101 3.2 4.8 0.00 0.00 0.00 33 1004.3
20260504010307 20 168 4.8 4.8 0.00 0.00 0.00 33 1004.1
20260504005804 20 101 3.2 3.2 0.00 0.00 0.00 33 1004.3
20260504005301 20 192 1.6 3.2 0.00 0.00 0.00 32 1004.4
20260504004758 20 271 1.6 3.2 0.00 0.00 0.00 33 1004.3
20260504004256 21 213 1.6 1.6 0.00 0.00 0.00 33 1004.3
20260504003752 21 82 3.2 3.2 0.00 0.00 0.00 32 1004.3
20260504003249 21 104 6.4 6.4 0.00 0.00 0.00 31 1004.4
20260504002745 21 131 4.8 9.7 0.00 0.00 0.00 30 1004.4
20260504002242 21 53 1.6 3.2 0.00 0.00 0.00 31 1004.4
20260504001740 21 183 3.2 4.8 0.00 0.00 0.00 31 1004.4
20260504001237 21 110 3.2 4.8 0.00 0.00 0.00 31 1004.5
20260504000734 21 123 3.2 9.7 0.00 0.00 0.00 31 1004.5
20260504000231 21 94 3.2 4.8 0.00 0.00 0.00 31 1004.6
20260503235729 21 133 6.4 9.7 0.00 0.00 0.00 31 1004.6
20260503235226 21 157 6.4 9.7 0.00 0.00 0.00 32 1004.7
20260503234724 21 110 3.2 4.8 0.00 0.00 0.00 32 1004.7
20260503234222 21 158 4.8 4.8 0.00 0.00 0.00 31 1004.8
20260503233718 21 60 4.8 6.4 0.00 0.00 0.00 31 1004.7
20260503233214 21 121 4.8 4.8 0.00 0.00 0.00 30 1004.8
20260503232711 22 133 4.8 6.4 0.00 0.00 0.00 31 1005.1
20260503232208 22 113 8.0 11.3 0.00 0.00 0.00 30 1005.1
20260503231707 22 139 6.4 6.4 0.00 0.00 0.00 30 1005.2
20260503231202 22 33 4.8 6.4 0.00 0.00 0.00 30 1005.2
20260503230659 22 163 4.8 6.4 0.00 0.00 0.00 30 1005.5
20260503230156 22 114 9.7 11.3 0.00 0.00 0.00 29 1005.4
20260503225653 22 131 3.2 6.4 0.00 0.00 0.00 30 1005.3
20260503225153 22 202 1.6 6.4 0.00 0.00 0.00 30 1005.3
20260503224651 22 172 4.8 4.8 0.00 0.00 0.00 29 1005.5
20260503224149 22 243 4.8 4.8 0.00 0.00 0.00 31 1005.5
20260503223647 22 150 3.2 6.4 0.00 0.00 0.00 28 1005.6
20260503223143 22 138 8.0 12.9 0.00 0.00 0.00 28 1005.5
20260503222640 22 225 6.4 9.7 0.00 0.00 0.00 29 1005.5
20260503222138 22 236 1.6 3.2 0.00 0.00 0.00 29 1005.6
20260503221636 22 165 3.2 3.2 0.00 0.00 0.00 31 1005.8
20260503221133 22 75 3.2 6.4 0.00 0.00 0.00 30 1005.7
20260503220630 22 88 6.4 9.7 0.00 0.00 0.00 28 1005.7
20260503220126 22 178 1.6 3.2 0.00 0.00 0.00 29 1005.9
20260503215624 22 186 6.4 6.4 0.00 0.00 0.00 30 1005.9
20260503215120 22 138 4.8 9.7 0.00 0.00 0.00 28 1006.0
20260503214619 22 158 4.8 9.7 0.00 0.00 0.00 30 1006.1
20260503214114 22 73 6.4 9.7 0.00 0.00 0.00 30 1006.1
20260503213614 22 164 6.4 6.4 0.00 0.00 0.00 29 1006.1
20260503213110 22 200 4.8 6.4 0.00 0.00 0.00 31 1006.3
20260503212608 22 120 8.0 9.7 0.00 0.00 0.00 31 1006.4
20260503212105 22 153 6.4 6.4 0.00 0.00 0.00 31 1006.4
20260503211602 22 25 4.8 6.4 0.00 0.00 0.00 32 1006.5
20260503211057 22 264 3.2 3.2 0.00 0.00 0.00 29 1006.6
20260503210554 22 189 1.6 3.2 0.00 0.00 0.00 29 1006.4
20260503210050 22 231 3.2 4.8 0.00 0.00 0.00 31 1006.7
20260503205547 22 237 1.6 1.6 0.00 0.00 0.00 30 1006.7
20260503205043 22 94 4.8 4.8 0.00 0.00 0.00 34 1006.9
20260503204540 22 231 4.8 6.4 0.00 0.00 0.00 31 1006.9
20260503204037 22 217 3.2 3.2 0.00 0.00 0.00 33 1007.1
20260503203534 21 174 6.4 9.7 0.00 0.00 0.00 30 1007.0
20260503203031 22 76 3.2 9.7 0.00 0.00 0.00 32 1007.2
20260503202529 22 12 1.6 3.2 0.00 0.00 0.00 34 1007.1
20260503202027 22 222 3.2 3.2 0.00 0.00 0.00 32 1007.2
20260503201525 21 215 3.2 3.2 0.00 0.00 0.00 33 1007.5
20260503201022 21 252 1.6 1.6 0.00 0.00 0.00 34 1007.3
20260503200518 21 268 4.8 4.8 0.00 0.00 0.00 35 1007.8
20260503200015 21 224 3.2 3.2 0.00 0.00 0.00 32 1007.8
20260503195512 22 272 4.8 6.4 0.00 0.00 0.00 31 1007.8
20260503195009 21 150 4.8 6.4 0.00 0.00 0.00 32 1007.8
20260503194506 21 211 4.8 6.4 0.00 0.00 0.00 33 1007.9
20260503194006 21 190 4.8 6.4 0.00 0.00 0.00 34 1007.9
20260503193502 21 248 3.2 3.2 0.00 0.00 0.00 35 1008.0
20260503192958 21 182 6.4 11.3 0.00 0.00 0.00 32 1007.9
20260503192454 21 244 1.6 3.2 0.00 0.00 0.00 36 1008.1
20260503191949 21 261 9.7 14.5 0.00 0.00 0.00 33 1008.0
20260503191448 21 260 6.4 9.7 0.00 0.00 0.00 34 1007.9
20260503190943 20 128 3.2 4.8 0.00 0.00 0.00 36 1008.1
20260503190441 21 154 8.0 11.3 0.00 0.00 0.00 35 1008.3
20260503185938 21 173 11.3 17.7 0.00 0.00 0.00 34 1008.1
20260503185434 21 216 3.2 4.8 0.00 0.00 0.00 35 1008.2
20260503184934 21 187 4.8 9.7 0.00 0.00 0.00 33 1008.2
20260503184431 21 181 3.2 4.8 0.00 0.00 0.00 34 1008.4
20260503183927 21 184 1.6 3.2 0.00 0.00 0.00 33 1008.5
20260503183423 21 243 3.2 9.7 0.00 0.00 0.00 33 1008.4
20260503182921 21 161 9.7 11.3 0.00 0.00 0.00 33 1008.5
20260503182420 21 161 3.2 4.8 0.00 0.00 0.00 35 1008.7
20260503181917 21 210 3.2 4.8 0.00 0.00 0.00 33 1008.7
20260503181414 20 185 4.8 6.4 0.00 0.00 0.00 34 1008.9
20260503180910 21 196 3.2 3.2 0.00 0.00 0.00 34 1008.6
20260503180408 21 248 6.4 9.7 0.00 0.00 0.00 34 1008.8
20260503175904 20 262 4.8 6.4 0.00 0.00 0.00 35 1008.9
20260503175403 20 222 8.0 9.7 0.00 0.00 0.00 35 1009.1
20260503174858 21 244 9.7 16.1 0.00 0.00 0.00 37 1008.9
20260503174356 20 226 3.2 4.8 0.00 0.00 0.00 35 1009.1
20260503173851 20 260 6.4 9.7 0.00 0.00 0.00 37 1009.0